• In Netherlands
  • List of Countries
  • For 7 days
  • Water Temperature
  • Satellite Maps
  • Weather Map
  • Weather Widgets
  • user-avatar
    Login

    Hourly Weather Kalat

    Today, 1 May, Monday

    Time Temperature Precipitation Wind Pressure Humidity
    00:00 -9°C° 0 mm 2 mps 472 mmHg 46%
    01:00 -9°C° 0 mm 2 mps 471 mmHg 42%
    02:00 -9°C° 0 mm 2 mps 471 mmHg 39%
    03:00 -9°C° 0 mm 2 mps 471 mmHg 36%
    04:00 -10°C° 0 mm 2 mps 471 mmHg 33%
    05:00 -10°C° 0 mm 2 mps 470 mmHg 31%
    06:00 -6°C° 0 mm 1 mps 472 mmHg 28%
    07:00 -3°C° 0 mm 1 mps 474 mmHg 26%
    08:00 0°C° 0 mm 1 mps 477 mmHg 24%
    09:00 +1°C° 0 mm 1 mps 477 mmHg 26%
    10:00 +2°C° 0 mm 1 mps 478 mmHg 28%
    11:00 +2°C° 0 mm 2 mps 478 mmHg 30%
    12:00 +2°C° 0 mm 2 mps 479 mmHg 31%
    13:00 +3°C° 0 mm 2 mps 479 mmHg 32%
    14:00 +3°C° 0 mm 2 mps 479 mmHg 32%
    15:00 +3°C° 0 mm 2 mps 479 mmHg 32%
    16:00 +3°C° 0 mm 2 mps 479 mmHg 31%
    17:00 +3°C° 0 mm 2 mps 478 mmHg 31%
    18:00 +3°C° 0 mm 1 mps 478 mmHg 36%
    19:00 +1°C° 0 mm 1 mps 477 mmHg 41%
    20:00 0°C° 0 mm 1 mps 476 mmHg 45%
    21:00 0°C° 0 mm 1 mps 476 mmHg 45%
    22:00 0°C° 0 mm 1 mps 476 mmHg 45%
    23:00 0°C° 0 mm 1 mps 476 mmHg 45%

    Tomorrow, 2 May, Tuesday

    Time Temperature Precipitation Wind Pressure Humidity
    00:00 0°C° 0 mm 1 mps 476 mmHg 44%
    01:00 0°C° 0 mm 1 mps 476 mmHg 44%
    02:00 0°C° 0 mm 1 mps 475 mmHg 43%
    03:00 0°C° 0 mm 1 mps 475 mmHg 44%
    04:00 0°C° 0 mm 1 mps 475 mmHg 44%
    05:00 0°C° 0 mm 1 mps 475 mmHg 44%
    06:00 0°C° 0 mm 1 mps 476 mmHg 43%
    07:00 +1°C° 0 mm 1 mps 477 mmHg 41%
    08:00 +2°C° 0 mm 1 mps 477 mmHg 39%
    09:00 +2°C° 0 mm 1 mps 478 mmHg 41%
    10:00 +3°C° 0 mm 1 mps 478 mmHg 44%
    11:00 +3°C° 0 mm 1 mps 478 mmHg 46%
    12:00 +3°C° 0.1 mm 1 mps 479 mmHg 47%
    13:00 +3°C° 0.1 mm 2 mps 479 mmHg 48%
    14:00 +3°C° 0.1 mm 2 mps 479 mmHg 49%
    15:00 +3°C° 0.2 mm 2 mps 479 mmHg 50%
    16:00 +3°C° 0.2 mm 2 mps 478 mmHg 52%
    17:00 +3°C° 0.2 mm 2 mps 478 mmHg 53%
    18:00 +2°C° 0.1 mm 2 mps 478 mmHg 57%
    19:00 +2°C° 0.1 mm 1 mps 478 mmHg 60%
    20:00 +1°C° 0.1 mm 1 mps 477 mmHg 64%
    21:00 +1°C° 0 mm 1 mps 477 mmHg 64%
    22:00 0°C° 0 mm 0 mps 477 mmHg 65%
    23:00 -1°C° 0 mm 0 mps 477 mmHg 66%

    Day after tomorrow, 3 May, Wednesday

    Time Temperature Precipitation Wind Pressure Humidity
    00:00 -1°C° 0 mm 0 mps 477 mmHg 65%
    01:00 -1°C° 0 mm 0 mps 476 mmHg 64%
    02:00 0°C° 0 mm 1 mps 476 mmHg 64%
    03:00 0°C° 0 mm 1 mps 476 mmHg 62%
    04:00 -1°C° 0 mm 1 mps 475 mmHg 61%
    05:00 -1°C° 0 mm 1 mps 475 mmHg 59%
    06:00 0°C° 0 mm 1 mps 476 mmHg 54%
    07:00 +1°C° 0 mm 1 mps 477 mmHg 48%
    08:00 +2°C° 0 mm 1 mps 477 mmHg 43%
    09:00 +2°C° 0 mm 1 mps 478 mmHg 40%
    10:00 +3°C° 0 mm 1 mps 478 mmHg 37%
    11:00 +3°C° 0 mm 2 mps 479 mmHg 34%
    12:00 +4°C° 0 mm 2 mps 479 mmHg 34%
    13:00 +4°C° 0 mm 2 mps 479 mmHg 35%
    14:00 +5°C° 0 mm 2 mps 479 mmHg 35%
    15:00 +4°C° 0 mm 2 mps 479 mmHg 37%
    16:00 +3°C° 0 mm 3 mps 479 mmHg 38%
    17:00 +3°C° 0 mm 3 mps 478 mmHg 39%
    18:00 +3°C° 0 mm 2 mps 478 mmHg 44%
    19:00 +3°C° 0 mm 1 mps 477 mmHg 49%
    20:00 +2°C° 0 mm 1 mps 477 mmHg 54%
    21:00 +2°C° 0 mm 1 mps 477 mmHg 54%
    22:00 +2°C° 0 mm 1 mps 477 mmHg 54%
    23:00 +1°C° 0 mm 1 mps 477 mmHg 55%

    4 May, Thursday

    Time Temperature Precipitation Wind Pressure Humidity
    00:00 +1°C° 0 mm 1 mps 477 mmHg 52%
    01:00 +1°C° 0 mm 1 mps 476 mmHg 50%
    02:00 +1°C° 0 mm 1 mps 476 mmHg 48%
    03:00 +1°C° 0 mm 1 mps 476 mmHg 46%
    04:00 +1°C° 0 mm 1 mps 476 mmHg 44%
    05:00 +1°C° 0 mm 1 mps 476 mmHg 42%
    06:00 +1°C° 0 mm 1 mps 476 mmHg 42%
    07:00 +2°C° 0 mm 1 mps 477 mmHg 42%
    08:00 +2°C° 0 mm 1 mps 478 mmHg 41%
    09:00 +2°C° 0 mm 2 mps 478 mmHg 42%
    10:00 +3°C° 0 mm 2 mps 479 mmHg 43%
    11:00 +3°C° 0 mm 2 mps 479 mmHg 45%
    12:00 +4°C° 0 mm 2 mps 479 mmHg 43%
    13:00 +4°C° 0 mm 3 mps 480 mmHg 42%
    14:00 +4°C° 0 mm 3 mps 480 mmHg 40%
    15:00 +4°C° 0 mm 3 mps 480 mmHg 39%
    16:00 +4°C° 0 mm 3 mps 480 mmHg 39%
    17:00 +4°C° 0 mm 3 mps 479 mmHg 38%
    18:00 +4°C° 0 mm 2 mps 479 mmHg 42%
    19:00 +3°C° 0 mm 2 mps 479 mmHg 45%
    20:00 +3°C° 0 mm 1 mps 478 mmHg 49%
    21:00 +3°C° 0 mm 1 mps 478 mmHg 50%
    22:00 +3°C° 0 mm 1 mps 478 mmHg 50%
    23:00 +2°C° 0 mm 1 mps 478 mmHg 51%

    5 May, Friday

    Time Temperature Precipitation Wind Pressure Humidity
    00:00 +2°C° 0 mm 1 mps 478 mmHg 50%
    01:00 +2°C° 0 mm 1 mps 477 mmHg 49%
    02:00 +2°C° 0 mm 1 mps 477 mmHg 48%
    03:00 +2°C° 0 mm 1 mps 477 mmHg 48%
    04:00 +1°C° 0 mm 1 mps 476 mmHg 47%
    05:00 +1°C° 0 mm 1 mps 476 mmHg 47%
    06:00 +2°C° 0 mm 1 mps 477 mmHg 43%
    07:00 +3°C° 0 mm 1 mps 478 mmHg 38%
    08:00 +4°C° 0 mm 2 mps 479 mmHg 34%
    09:00 +5°C° 0 mm 2 mps 479 mmHg 33%
    10:00 +6°C° 0 mm 2 mps 480 mmHg 32%
    11:00 +6°C° 0 mm 2 mps 480 mmHg 31%
    12:00 +7°C° 0 mm 2 mps 480 mmHg 32%
    13:00 +7°C° 0 mm 2 mps 480 mmHg 33%
    14:00 +8°C° 0 mm 3 mps 480 mmHg 34%
    15:00 +7°C° 0.1 mm 3 mps 480 mmHg 37%
    16:00 +7°C° 0.1 mm 3 mps 480 mmHg 40%
    17:00 +5°C° 0.1 mm 3 mps 479 mmHg 43%
    18:00 +6°C° 0.2 mm 2 mps 479 mmHg 49%
    19:00 +5°C° 0.2 mm 2 mps 479 mmHg 56%
    20:00 +5°C° 0.2 mm 1 mps 478 mmHg 62%
    21:00 +4°C° 0 mm 1 mps 478 mmHg 64%
    22:00 +4°C° 0 mm 1 mps 478 mmHg 66%
    23:00 +4°C° 0 mm 1 mps 478 mmHg 68%

    6 May, Saturday

    Time Temperature Precipitation Wind Pressure Humidity
    00:00 +4°C° 0 mm 1 mps 478 mmHg 67%
    01:00 +3°C° 0 mm 1 mps 478 mmHg 66%
    02:00 +3°C° 0 mm 1 mps 478 mmHg 65%
    03:00 +3°C° 0 mm 1 mps 478 mmHg 66%
    04:00 +3°C° 0 mm 1 mps 477 mmHg 67%
    05:00 +2°C° 0 mm 1 mps 477 mmHg 67%
    06:00 +3°C° 0 mm 1 mps 478 mmHg 62%
    07:00 +4°C° 0 mm 1 mps 479 mmHg 56%
    08:00 +5°C° 0 mm 1 mps 479 mmHg 50%
    09:00 +6°C° 0 mm 1 mps 480 mmHg 46%
    10:00 +7°C° 0 mm 1 mps 480 mmHg 42%
    11:00 +6°C° 0 mm 2 mps 481 mmHg 38%
    12:00 +7°C° 0.1 mm 2 mps 481 mmHg 38%
    13:00 +7°C° 0.1 mm 2 mps 481 mmHg 39%
    14:00 +8°C° 0.1 mm 3 mps 481 mmHg 39%
    15:00 +7°C° 0.3 mm 2 mps 480 mmHg 45%
    16:00 +6°C° 0.3 mm 2 mps 480 mmHg 50%
    17:00 +5°C° 0.3 mm 2 mps 479 mmHg 56%
    18:00 +5°C° 0.2 mm 2 mps 479 mmHg 59%
    19:00 +5°C° 0.2 mm 1 mps 479 mmHg 62%
    20:00 +5°C° 0.2 mm 1 mps 479 mmHg 64%
    21:00 +4°C° 0.1 mm 1 mps 479 mmHg 67%
    22:00 +4°C° 0.1 mm 1 mps 479 mmHg 70%
    23:00 +4°C° 0.1 mm 1 mps 479 mmHg 73%
    Show more